Regional Weather Roundup
Issued by NWS

Home | Current Version | Previous Version | Text Only | Print | Product List | Glossary On
Versions: 1 2 3 4 5 6 7 8 9 10 11 12 13 14 15 16 17 18 19 20 21 22 23 24 25 26 27 28 29 30 31 32 33 34 35 36 37 38 39 40 41 42 43 44 45 46 47 48 49 50
000
ASUS43 KLSX 230157
RWRMO

WEATHER SUMMARY FOR MISSOURI
NATIONAL WEATHER SERVICE SPRINGFIELD MO
800 PM CST THU FEB 22 2018

NOTE: "FAIR" INDICATES FEW OR NO CLOUDS BELOW 12,000 FEET WITH NO
       SIGNIFICANT WEATHER AND/OR OBSTRUCTIONS TO VISIBILITY.
       CURRENT SKY AND/OR WEATHER CONDITIONS ARE NOT AVAILABLE FOR
       CHILLICOTHE AND FARMINGTON.

MOZ001>031-035>038-043-044-053-054-230300-
...NORTHERN AND WESTERN MISSOURI...

CITY           SKY/WX    TMP DP  RH WIND       PRES   REMARKS
KANSAS CTY INT LGT RAIN  33  32  96 S3        30.17S FOG
LEE`S SUMMIT   MIX PCPN  33  33 100 CALM      30.17S VSB 1
ST JOSEPH      CLOUDY    32  32 100 S3        30.18F FOG
CHILLICOTHE      N/A     34  33  96 SE5       30.21S WCI  30

$$
MOZ066>068-077>081-088>096-101>105-230300-
...SOUTHWEST MISSOURI...

CITY           SKY/WX    TMP DP  RH WIND       PRES   REMARKS
SPRINGFIELD    CLOUDY    42  41  96 SE15      30.16F
JOPLIN         CLOUDY    42  42 100 S6        30.16F
BRANSON        RAIN      39  39 100 E7        30.18F FOG

$$
MOZ032>034-039>042-045>050-055>058-069>072-230300-
...CENTRAL MISSOURI...

CITY           SKY/WX    TMP DP  RH WIND       PRES   REMARKS
COLUMBIA       NOT AVBL
JEFFERSON CITY LGT RAIN  39  38  96 E10       30.23F FOG
ROLLA          LGT RAIN  39  39 100 SE9       30.24R FOG
SEDALIA        CLOUDY    38  38 100 SE13      30.20F WCI  30
WARRENSBURG    LGT RAIN  36  34  93 E7        30.18R WCI  30

$$
MOZ051-052-059>065-230300-
...EAST CENTRAL MISSOURI...

CITY           SKY/WX    TMP DP  RH WIND       PRES   REMARKS
ST LOUIS INTL  LGT RAIN  43  43 100 E12       30.27F FOG

$$
MOZ072>076-082>087-097>100-106>115-230300-
...SOUTH CENTRAL AND SOUTHEAST MISSOURI...

CITY           SKY/WX    TMP DP  RH WIND       PRES   REMARKS
CAPE GIRARDEAU RAIN      47  45  93 NW3       30.31F FOG
POPLAR BLUFF   RAIN      45  44  97 E7        30.29F FOG
WEST PLAINS    LGT RAIN  42  40  92 E14       30.17F

$$



USA.gov is the U.S. government's official web portal to all federal, state and local government web resources and services.